Location: Isola Pescaroli
(45.0500°N, 10.1667°E)
Time: 14:52:20
(UTC+00:00)

SAR-Lupe-4 - Pass Details

Date: 03 March 2021
Orbit: 483 x 483 km, 98.2° (Epoch: 13 April)

Event Time Altitude Azimuth Distance (km) Brightness Sun altitude
Rises 18:00:44 0° 17° (NNE) 2,562 7.1 -9.8°
Reaches altitude 10° 18:02:50 10° 22° (NNE) 1,676 6.1 -10.2°
Maximum altitude 18:06:23 56° 101° (E) 583 3.6 -10.8°
Drops below altitude 10° 18:09:54 10° 181° (S) 1,661 6.3 -11.4°
Sets 18:11:58 0° 185° (S) 2,535 7.3 -11.8°
